This is the latest recevied weather packets stored in our database for station/object WX1NWA. If no packets are shown the sender has not sent any weather packets the latest 10 day(s).
| Time | Temp. | Humidity | Pressure | Rain* | Wind** | Luminosity | Snow |
|---|---|---|---|---|---|---|---|
| 1777315892 | 25° C | 79% | 1010.3 hPa | 0 mm | - | 754 W/m² | - |
| 1777315591 | 25.56° C | 79% | 1010.6 hPa | 0 mm | - | 663 W/m² | - |
| 1777315288 | 25.56° C | 80% | 1010.6 hPa | 0 mm | - | 721 W/m² | - |
| 1777314986 | 25° C | 80% | 1010.3 hPa | 0 mm | - | 723 W/m² | - |
| 1777314681 | 25° C | 80% | 1010.7 hPa | 0 mm | - | 725 W/m² | - |
| 1777314378 | 25.56° C | 79% | 1010.6 hPa | 0 mm | - | 781 W/m² | - |
| 1777314075 | 25.56° C | 80% | 1010.8 hPa | 0 mm | - | 705 W/m² | - |
| 1777313773 | 24.44° C | 81% | 1010.6 hPa | 0 mm | - | 740 W/m² | - |
| 1777313470 | 25° C | 81% | 1010.7 hPa | 0 mm | - | 727 W/m² | - |
| 1777313168 | 25° C | 81% | 1010.7 hPa | 0 mm | - | 755 W/m² | - |
| 1777312863 | 24.44° C | 83% | 1010.6 hPa | 0 mm | - | 742 W/m² | - |
| 1777312560 | 24.44° C | 84% | 1010.8 hPa | 0 mm | - | 505 W/m² | - |
| 1777312257 | 23.89° C | 84% | 1010.6 hPa | 0 mm | - | 683 W/m² | - |
| 1777311954 | 23.89° C | 83% | 1010.6 hPa | 0 mm | - | 253 W/m² | - |
| 1777311651 | 23.89° C | 82% | 1010.8 hPa | 0 mm | - | 810 W/m² | - |
| 1777311349 | 23.89° C | 84% | 1010.8 hPa | 0 mm | - | 297 W/m² | - |
| 1777311046 | 23.33° C | 86% | 1010.5 hPa | 0 mm | - | 217 W/m² | - |
| 1777310744 | 23.89° C | 86% | 1010.6 hPa | 0 mm | - | 257 W/m² | - |
| 1777310441 | 23.33° C | 86% | 1010.6 hPa | 0 mm | - | 306 W/m² | - |
| 1777310138 | 23.33° C | 87% | 1010.8 hPa | 0 mm | - | 281 W/m² | - |
| 1777309836 | 23.89° C | 86% | 1010.6 hPa | 0 mm | - | 483 W/m² | - |
| 1777309534 | 23.33° C | 87% | 1010.8 hPa | 0 mm | - | 767 W/m² | - |
| 1777309230 | 22.78° C | 88% | 1010.6 hPa | 0 mm | - | 794 W/m² | - |
| 1777308929 | 22.78° C | 88% | 1010.7 hPa | 0 mm | - | 352 W/m² | - |
| 1777308624 | 22.78° C | 88% | 1010.9 hPa | 0 mm | - | 274 W/m² | - |
* Rain latest hour (hover to see other rain measurements)
** Current wind speed in m/s (hover to see current wind gust speed)